sat.trackr.live / text

‹ back to catalog

STARLINK-11659 [DTC]

NORAD 63266 · 2025-053B

PAYLOAD ACTIVE UNKNOWN

§ Identity

Operator
Country
US
Launch date
2025-03-15
Launch site
AFETR
Launch vehicle
Mass (kg)
RCS (m²)

Purposes: comms

External: N2YO · Heavens-Above · Gunter

§ Orbital elements

Epoch: 2026-09-20T14:10:32.880576Z

Period
91.67 min
Inclination
43.0016°
Eccentricity
0.0000899
Mean motion
15.70854382 rev/d
Perigee alt
355.8 km
Apogee alt
357.1 km
Semi-major
6,734.6 km
B*
1.1857e-3
RAAN
17.3146°
Arg perigee
265.2852°
Mean anomaly
94.7913°
Rev number
8,832

§ Raw data

STARLINK-11659 [DTC]1 63266U 25053B   26263.59065834  .00154648  00000+0  11857-2 0  99982 63266  43.0016  17.3146 0000899 265.2852  94.7913 15.70854382 88324

JSON: /api/v1/satellites/63266 · /tle

For live sub-satellite position, see the globe view (requires WebGL).

§ Visibility from observer

Set your observer location to see the next 7 days of passes ≥ 10°. The values pass through the URL so the page stays shareable.

No JS? Fill the form by hand. The geolocation button needs JavaScript.